This demonstration page uses our WeatherBlox Daily Observations layout. Learn more.

Left ArrowRight Arrow

34.16533, -84.80231

Hourly Observations for August 6, 2018

Temp ( °F °C ) Dew Point ( °F °C ) Humidity (%) Winds ( mph kmh ) Pressure ( in mb ) Visibility ( mi km ) Precip ( " mm )
12:53 am 00:53 Clear 73 22.8 73 22.8 100 100 Calm 30.17 1022 10 16 0.00 0.00
1:53 am 01:53 Clear 72 22.2 72 22.2 100 100 Calm 30.15 1021 9 14 0.00 0.00
2:53 am 02:53 Clear 72 22.2 72 22.2 100 100 Calm 30.14 1021 10 16 0.00 0.00
3:53 am 03:53 Clear 71 21.7 71 21.7 100 100 Calm 30.14 1021 9 14 0.00 0.00
4:53 am 04:53 Clear 71 21.7 71 21.7 100 100 Calm 30.14 1021 8 13 0.00 0.00
5:53 am 05:53 Clear 71 21.7 71 21.7 100 100 Calm 30.14 1021 9 14 0.00 0.00
6:39 am 06:39 Mostly Clear 70 21.1 70 21.1 100 100 Calm 30.15 1021 9 14 0.00 0.00
6:53 am 06:53 Mostly Cloudy 70 21.1 70 21.1 100 100 Calm 30.16 1021 9 14 0.00 0.00
7:51 am 07:51 Cloudy with Mist and Fog 72 22 72 22 100 100 Calm 30.18 1022 1 2 0.00 0.00
7:53 am 07:53 Cloudy with Mist and Fog 72 22.2 72 22.2 100 100 Calm 30.17 1022 1 2 0.00 0.00
8:00 am 08:00 Cloudy with Mist and Fog 72 22.2 72 22.2 100 100 Calm 30.18 1022 1 1 0.00 0.00
8:05 am 08:05 Cloudy with Mist and Fog 73 22.8 73 22.8 100 100 Calm 30.18 1022 2 3 0.00 0.00
8:17 am 08:17 Mostly Cloudy with Mist and Fog 74 23.3 74 23.3 100 100 Calm 30.18 1022 6 10 0.00 0.00
8:26 am 08:26 Partly Cloudy 75 23.9 74 23.3 96 96 Calm 30.18 1022 8 13 0.00 0.00
8:53 am 08:53 Sunny 77 25 75 23.9 94 94 Calm 30.17 1022 10 16 0.00 0.00
9:53 am 09:53 Sunny 82 27.8 75 23.9 79 79 Calm 30.16 1022 10 16 0.00 0.00
10:53 am 10:53 Sunny 85 29.4 74 23.3 70 70 Calm 30.17 1022 10 16 0.00 0.00
11:53 am 11:53 Sunny 90 32.2 75 23.9 62 62 VRB 5 7 30.18 1022 10 16 0.00 0.00
12:53 pm 12:53 Sunny 90 32.2 71 21.7 54 54 VRB 3 6 30.16 1021 10 16 0.00 0.00
1:53 pm 13:53 Mostly Sunny 91 32.8 72 22.2 54 54 VRB 5 7 30.14 1021 10 16 0.00 0.00
2:53 pm 14:53 Sunny 92 33.3 71 21.7 51 51 N 7 11 30.12 1020 10 16 0.00 0.00
3:53 pm 15:53 Sunny 92 33.3 71 21.7 51 51 VRB 3 6 30.09 1019 10 16 0.00 0.00
4:53 pm 16:53 Sunny 92 33.3 69 20.6 47 47 Calm 30.06 1018 10 16 0.00 0.00
5:53 pm 17:53 Sunny 91 32.8 72 22.2 54 54 VRB 5 7 30.06 1018 10 16 0.00 0.00
6:53 pm 18:53 Sunny 90 32.2 71 21.7 54 54 NNW 3 6 30.05 1018 10 16 0.00 0.00
7:53 pm 19:53 Sunny 83 28.3 78 25.6 85 85 Calm 30.07 1018 10 16 0.00 0.00
8:53 pm 20:53 Clear 77 25 76 24.4 96 96 Calm 30.07 1018 10 16 0.00 0.00
9:53 pm 21:53 Clear 75 23.9 75 23.9 100 100 Calm 30.09 1019 10 16 0.00 0.00
10:53 pm 22:53 Clear 75 23.9 75 23.9 100 100 Calm 30.10 1019 10 16 0.00 0.00
11:53 pm 23:53 Clear 74 23.3 74 23.3 100 100 Calm 30.10 1019 10 16 0.00 0.00

Powered by AerisWeather